• In Hungary
  • List of Countries
  • For 7 days
  • Water Temperature
  • Satellite Maps
  • Weather Map
  • News
  • Weather Widgets
  • user-avatar
    Login

    Hourly Weather Brisbane

    Today, 21 September, Friday

    Time Temperature Precipitation Wind Pressure Humidity
    00:00 +14°C° 0.1 mm 5 mps 764 mmHg 71%
    01:00 +14°C° 0.1 mm 6 mps 764 mmHg 77%
    02:00 +14°C° 0 mm 6 mps 764 mmHg 79%
    03:00 +14°C° 0 mm 6 mps 765 mmHg 80%
    04:00 +13°C° 0 mm 5 mps 765 mmHg 82%
    05:00 +13°C° 0 mm 5 mps 765 mmHg 79%
    06:00 +14°C° 0 mm 5 mps 766 mmHg 76%
    07:00 +15°C° 0 mm 6 mps 766 mmHg 74%
    08:00 +17°C° 0 mm 6 mps 766 mmHg 65%
    09:00 +20°C° 0 mm 6 mps 766 mmHg 56%
    10:00 +22°C° 0 mm 6 mps 767 mmHg 47%
    11:00 +23°C° 0 mm 6 mps 766 mmHg 44%
    12:00 +23°C° 0 mm 6 mps 766 mmHg 41%
    13:00 +24°C° 0 mm 6 mps 766 mmHg 38%
    14:00 +24°C° 0 mm 6 mps 766 mmHg 40%
    15:00 +23°C° 0 mm 6 mps 766 mmHg 41%
    16:00 +23°C° 0 mm 6 mps 766 mmHg 42%
    17:00 +21°C° 0 mm 5 mps 766 mmHg 49%
    18:00 +19°C° 0 mm 5 mps 767 mmHg 56%
    19:00 +17°C° 0 mm 5 mps 767 mmHg 63%
    20:00 +17°C° 0 mm 4 mps 768 mmHg 67%
    21:00 +15°C° 0 mm 4 mps 768 mmHg 71%
    22:00 +15°C° 0 mm 4 mps 769 mmHg 75%
    23:00 +14°C° 0 mm 3 mps 769 mmHg 77%

    Tomorrow, 22 September, Saturday

    Time Temperature Precipitation Wind Pressure Humidity
    00:00 +14°C° 0 mm 3 mps 768 mmHg 79%
    01:00 +13°C° 0 mm 3 mps 768 mmHg 82%
    02:00 +13°C° 0 mm 3 mps 768 mmHg 83%
    03:00 +13°C° 0 mm 3 mps 768 mmHg 84%
    04:00 +12°C° 0 mm 3 mps 768 mmHg 85%
    05:00 +13°C° 0 mm 3 mps 768 mmHg 82%
    06:00 +14°C° 0 mm 3 mps 769 mmHg 79%
    07:00 +14°C° 0 mm 3 mps 769 mmHg 76%
    08:00 +18°C° 0 mm 3 mps 769 mmHg 66%
    09:00 +20°C° 0 mm 3 mps 769 mmHg 56%
    10:00 +24°C° 0 mm 3 mps 769 mmHg 45%
    11:00 +25°C° 0 mm 3 mps 768 mmHg 42%
    12:00 +26°C° 0 mm 3 mps 767 mmHg 40%
    13:00 +26°C° 0 mm 4 mps 767 mmHg 37%
    14:00 +26°C° 0 mm 4 mps 766 mmHg 40%
    15:00 +25°C° 0 mm 4 mps 766 mmHg 43%
    16:00 +25°C° 0 mm 4 mps 766 mmHg 46%
    17:00 +22°C° 0 mm 4 mps 766 mmHg 54%
    18:00 +20°C° 0 mm 3 mps 767 mmHg 63%
    19:00 +18°C° 0 mm 3 mps 767 mmHg 72%
    20:00 +18°C° 0 mm 3 mps 767 mmHg 75%
    21:00 +17°C° 0 mm 2 mps 767 mmHg 78%
    22:00 +18°C° 0 mm 1 mps 768 mmHg 81%
    23:00 +16°C° 0 mm 1 mps 767 mmHg 81%

    Day after tomorrow, 23 September, Sunday

    Time Temperature Precipitation Wind Pressure Humidity
    00:00 +16°C° 0 mm 1 mps 767 mmHg 82%
    01:00 +16°C° 0 mm 1 mps 767 mmHg 82%
    02:00 +16°C° 0 mm 1 mps 767 mmHg 84%
    03:00 +15°C° 0 mm 1 mps 767 mmHg 86%
    04:00 +15°C° 0 mm 1 mps 766 mmHg 87%
    05:00 +16°C° 0 mm 1 mps 767 mmHg 84%
    06:00 +16°C° 0 mm 1 mps 767 mmHg 80%
    07:00 +18°C° 0 mm 1 mps 767 mmHg 77%
    08:00 +21°C° 0 mm 1 mps 767 mmHg 65%
    09:00 +24°C° 0 mm 1 mps 767 mmHg 54%
    10:00 +25°C° 0 mm 0 mps 766 mmHg 42%
    11:00 +28°C° 0 mm 1 mps 766 mmHg 40%
    12:00 +29°C° 0 mm 1 mps 765 mmHg 37%
    13:00 +30°C° 0 mm 2 mps 764 mmHg 35%
    14:00 +28°C° 0 mm 2 mps 764 mmHg 39%
    15:00 +27°C° 0 mm 3 mps 763 mmHg 42%
    16:00 +26°C° 0 mm 4 mps 763 mmHg 46%
    17:00 +23°C° 0 mm 4 mps 763 mmHg 55%
    18:00 +21°C° 0 mm 3 mps 764 mmHg 63%
    19:00 +19°C° 0 mm 3 mps 764 mmHg 71%
    20:00 +18°C° 0 mm 2 mps 765 mmHg 75%
    21:00 +18°C° 0 mm 2 mps 765 mmHg 78%
    22:00 +18°C° 0 mm 1 mps 765 mmHg 81%
    23:00 +18°C° 0 mm 1 mps 765 mmHg 82%

    24 September, Monday

    Time Temperature Precipitation Wind Pressure Humidity
    00:00 +16°C° 0 mm 1 mps 765 mmHg 84%
    01:00 +16°C° 0 mm 1 mps 765 mmHg 85%
    02:00 +16°C° 0 mm 1 mps 765 mmHg 86%
    03:00 +15°C° 0 mm 1 mps 764 mmHg 87%
    04:00 +15°C° 0 mm 1 mps 764 mmHg 89%
    05:00 +16°C° 0 mm 1 mps 765 mmHg 85%
    06:00 +17°C° 0 mm 2 mps 765 mmHg 81%
    07:00 +17°C° 0 mm 2 mps 765 mmHg 77%
    08:00 +20°C° 0 mm 2 mps 765 mmHg 67%
    09:00 +23°C° 0 mm 2 mps 765 mmHg 56%
    10:00 +26°C° 0 mm 2 mps 765 mmHg 46%
    11:00 +26°C° 0.1 mm 2 mps 765 mmHg 45%
    12:00 +26°C° 0.1 mm 2 mps 764 mmHg 45%
    13:00 +27°C° 0.1 mm 3 mps 763 mmHg 44%
    14:00 +26°C° 0.5 mm 4 mps 763 mmHg 51%
    15:00 +23°C° 0.5 mm 4 mps 763 mmHg 57%
    16:00 +22°C° 0.5 mm 5 mps 762 mmHg 64%
    17:00 +21°C° 0.5 mm 5 mps 763 mmHg 70%
    18:00 +20°C° 0.5 mm 5 mps 763 mmHg 76%
    19:00 +17°C° 0.5 mm 5 mps 764 mmHg 83%
    20:00 +18°C° 0.5 mm 4 mps 764 mmHg 84%
    21:00 +18°C° 0.5 mm 4 mps 765 mmHg 85%
    22:00 +17°C° 0.5 mm 4 mps 765 mmHg 86%
    23:00 +17°C° 0.6 mm 4 mps 765 mmHg 87%

    25 September, Tuesday

    Time Temperature Precipitation Wind Pressure Humidity
    00:00 +17°C° 0.6 mm 4 mps 764 mmHg 88%
    01:00 +17°C° 0.6 mm 3 mps 764 mmHg 89%
    02:00 +16°C° 0.7 mm 3 mps 764 mmHg 90%
    03:00 +16°C° 0.7 mm 3 mps 764 mmHg 90%
    04:00 +16°C° 0.7 mm 3 mps 764 mmHg 91%
    05:00 +16°C° 0.6 mm 3 mps 764 mmHg 89%
    06:00 +17°C° 0.6 mm 3 mps 764 mmHg 87%
    07:00 +17°C° 0.6 mm 4 mps 765 mmHg 85%
    08:00 +19°C° 0.3 mm 4 mps 765 mmHg 78%
    09:00 +20°C° 0.3 mm 4 mps 764 mmHg 70%
    10:00 +21°C° 0.3 mm 4 mps 764 mmHg 63%
    11:00 +22°C° 0.5 mm 4 mps 764 mmHg 62%
    12:00 +22°C° 0.5 mm 4 mps 763 mmHg 61%
    13:00 +23°C° 0.5 mm 4 mps 762 mmHg 60%
    14:00 +22°C° 0.5 mm 3 mps 762 mmHg 63%
    15:00 +21°C° 0.5 mm 3 mps 762 mmHg 67%
    16:00 +21°C° 0.5 mm 3 mps 762 mmHg 70%
    17:00 +19°C° 0.6 mm 3 mps 762 mmHg 75%
    18:00 +18°C° 0.6 mm 4 mps 763 mmHg 80%
    19:00 +17°C° 0.6 mm 4 mps 763 mmHg 85%
    20:00 +17°C° 1.2 mm 4 mps 763 mmHg 87%
    21:00 +15°C° 1.2 mm 4 mps 764 mmHg 88%
    22:00 +15°C° 1.2 mm 4 mps 764 mmHg 89%
    23:00 +15°C° 0.1 mm 4 mps 764 mmHg 89%

    26 September, Wednesday

    Time Temperature Precipitation Wind Pressure Humidity
    00:00 +14°C° 0.1 mm 4 mps 763 mmHg 90%
    01:00 +14°C° 0.1 mm 4 mps 763 mmHg 90%
    02:00 +14°C° 0.1 mm 4 mps 763 mmHg 90%
    03:00 +14°C° 0.1 mm 4 mps 763 mmHg 89%
    04:00 +14°C° 0.1 mm 4 mps 763 mmHg 89%
    05:00 +14°C° 0.1 mm 4 mps 763 mmHg 87%
    06:00 +15°C° 0.1 mm 4 mps 764 mmHg 85%
    07:00 +15°C° 0.1 mm 4 mps 764 mmHg 84%
    08:00 +17°C° 0 mm 4 mps 764 mmHg 76%
    09:00 +19°C° 0 mm 3 mps 764 mmHg 69%
    10:00 +21°C° 0 mm 3 mps 764 mmHg 61%
    11:00 +21°C° 0 mm 3 mps 763 mmHg 58%
    12:00 +22°C° 0 mm 3 mps 763 mmHg 56%
    13:00 +24°C° 0 mm 3 mps 762 mmHg 53%
    14:00 +24°C° 0 mm 3 mps 762 mmHg 55%
    15:00 +22°C° 0 mm 3 mps 762 mmHg 56%
    16:00 +22°C° 0 mm 3 mps 762 mmHg 57%
    17:00 +21°C° 0 mm 3 mps 762 mmHg 65%
    18:00 +19°C° 0 mm 3 mps 763 mmHg 73%
    19:00 +17°C° 0 mm 3 mps 763 mmHg 80%
    20:00 +17°C° 0 mm 2 mps 763 mmHg 82%
    21:00 +17°C° 0 mm 2 mps 763 mmHg 84%
    22:00 +16°C° 0 mm 1 mps 763 mmHg 85%
    23:00 +16°C° 0 mm 2 mps 763 mmHg 86%
    Show more